Weather History for Newport, VT

Change the Weather History Date:

Thursday, August 7, 2014

  Actual Average Record
Temperature  
Mean Temperature 61 °F -  
Max Temperature 68 °F 78 °F 91 °F (1947)
Min Temperature 55 °F 55 °F 42 °F (1933)
Degree Days  
Heating Degree Days 4    
Growing Degree Days 11 (Base 50)    
Moisture  
Dew Point 56 °F    
Average Humidity 89    
Maximum Humidity 99    
Minimum Humidity 63    
Precipitation  
Precipitation 0.00 in - - ()
Sea Level Pressure  
Sea Level Pressure 29.94 in    
Wind  
Wind Speed 3 mph (WNW)    
Max Wind Speed 20 mph    
Max Gust Speed 26 mph    
Visibility 9 miles    
Events Rain    
Averages and records for this station are not official NWS values.
T = Trace of Precipitation, MM = Missing Value Source: NWS Daily Summary

Daily Weather History Graph

Daily Weather History Graph

Search for Another Location

Airport:

Trip Planner

Search our weather history database for the weather conditions in past years. The results will help you decide how hot, cold, wet, or windy it might be!

Date:

Astronomy

Aug. 07, 2014 Rise Set
Actual Time 5:41 AM EDT 8:07 PM EDT
Civil Twilight 5:08 AM EDT 8:39 PM EDT
Nautical Twilight 4:27 AM EDT 9:20 PM EDT
Astronomical Twilight 3:41 AM EDT 10:06 PM EDT
Moon 5:22 PM EDT (8/7) 2:06 AM EDT (8/7)
Length of Visible Light 15h 31m
Length of Day
14h 25m
Waxing Gibbous, 86% of the Moon is Illuminated
Aug 7
Waxing Gibbous
Aug 10
Full
Aug 17
Last Quarter
Aug 25
New
Sep 2
First Quarter

Hourly Weather History & Observations

Time (EDT) Temp. Dew Point Humidity Pressure Visibility Wind Dir Wind Speed Gust Speed Precip Events Conditions
12:15 AM 56.5 °F 53.8 °F 91% 29.90 in 10.0 mi SW 4.6 mph - N/A   Overcast
12:35 AM 56.5 °F 54.5 °F 93% 29.90 in 10.0 mi Calm Calm - N/A   Overcast
12:55 AM 56.5 °F 54.3 °F 92% 29.90 in 10.0 mi SW 4.6 mph - N/A   Overcast
1:15 AM 56.7 °F 54.0 °F 91% 29.91 in 10.0 mi WSW 3.5 mph - N/A Rain Light Rain
1:35 AM 57.4 °F 54.5 °F 90% 29.91 in 10.0 mi WNW 3.5 mph - N/A Rain Light Rain
1:55 AM 57.6 °F 55.0 °F 91% 29.90 in 10.0 mi Calm Calm - N/A   Light Drizzle
2:15 AM 56.5 °F 54.9 °F 94% 29.90 in 10.0 mi Calm Calm - N/A   Light Drizzle
2:35 AM 56.5 °F 55.4 °F 96% 29.91 in 10.0 mi Calm Calm - N/A Rain Rain
2:55 AM 56.7 °F 55.8 °F 97% 29.91 in 10.0 mi Calm Calm - N/A   Overcast
3:15 AM 56.5 °F 55.8 °F 97% 29.91 in 7.0 mi ESE 3.5 mph - N/A Rain Rain
3:35 AM 56.1 °F 55.6 °F 98% 29.91 in 5.0 mi Calm Calm - N/A Rain Rain
3:55 AM 56.3 °F 55.6 °F 97% 29.91 in 4.0 mi Calm Calm - N/A Rain Rain
4:15 AM 55.8 °F 55.4 °F 99% 29.90 in 10.0 mi Calm Calm - N/A Rain Rain
4:35 AM 56.3 °F 55.4 °F 97% 29.90 in 10.0 mi Calm Calm - N/A   Overcast
4:55 AM 56.1 °F 55.4 °F 97% 29.90 in 10.0 mi Calm Calm - N/A   Overcast
5:15 AM 55.8 °F 55.4 °F 99% 29.90 in 10.0 mi Calm Calm - N/A   Overcast
5:35 AM 55.6 °F 55.4 °F 99% 29.91 in 7.0 mi Calm Calm - N/A   Overcast
5:55 AM 55.6 °F 55.4 °F 99% 29.91 in 7.0 mi Calm Calm - N/A   Overcast
6:15 AM 55.6 °F 55.0 °F 98% 29.91 in 7.0 mi Calm Calm - N/A   Overcast
6:35 AM 56.3 °F 55.2 °F 96% 29.92 in 10.0 mi Calm Calm - N/A   Overcast
6:55 AM 56.5 °F 55.4 °F 96% 29.92 in 10.0 mi Calm Calm - N/A   Overcast
7:15 AM 57.4 °F 56.1 °F 96% 29.92 in 10.0 mi Calm Calm - N/A   Overcast
7:35 AM 57.4 °F 55.8 °F 94% 29.92 in 10.0 mi Calm Calm - N/A   Mostly Cloudy
7:55 AM 59.4 °F 56.8 °F 91% 29.92 in 10.0 mi Calm Calm - N/A   Scattered Clouds
8:15 AM 60.1 °F 57.7 °F 92% 29.92 in 10.0 mi SW 4.6 mph - N/A   Mostly Cloudy
8:35 AM 59.9 °F 57.4 °F 91% 29.93 in 10.0 mi West 4.6 mph - N/A   Overcast
8:55 AM 60.3 °F 57.4 °F 90% 29.93 in 10.0 mi WNW 3.5 mph - N/A   Overcast
9:15 AM 61.5 °F 57.7 °F 87% 29.93 in 10.0 mi NW 3.5 mph - N/A   Overcast
9:35 AM 62.2 °F 57.6 °F 85% 29.93 in 10.0 mi NW 5.8 mph - N/A   Mostly Cloudy
9:55 AM 62.6 °F 57.2 °F 82% 29.94 in 10.0 mi WNW 4.6 mph - N/A   Mostly Cloudy
10:15 AM 62.1 °F 56.3 °F 81% 29.94 in 10.0 mi NW 5.8 mph - N/A   Overcast
10:35 AM 62.4 °F 55.6 °F 78% 29.95 in 10.0 mi NW 9.2 mph - N/A   Mostly Cloudy
10:55 AM 62.1 °F 55.8 °F 80% 29.95 in 10.0 mi NW 4.6 mph - N/A   Mostly Cloudy
11:15 AM 63.5 °F 56.1 °F 77% 29.94 in 10.0 mi WNW 8.1 mph - N/A   Scattered Clouds
11:35 AM 65.3 °F 56.5 °F 73% 29.94 in 10.0 mi NW 9.2 mph - N/A   Scattered Clouds
11:55 AM 66.0 °F 56.5 °F 71% 29.93 in 10.0 mi WNW 10.4 mph - N/A   Scattered Clouds
12:15 PM 65.5 °F 55.2 °F 69% 29.93 in 10.0 mi NW 12.7 mph 17.3 mph N/A   Scattered Clouds
12:35 PM 67.3 °F 56.5 °F 68% 29.93 in 10.0 mi WNW 11.5 mph 17.3 mph N/A   Clear
12:55 PM 66.7 °F 55.8 °F 68% 29.92 in 10.0 mi WNW 6.9 mph - N/A   Scattered Clouds
1:15 PM 66.6 °F 53.8 °F 63% 29.92 in 10.0 mi WNW 12.7 mph 20.7 mph N/A   Mostly Cloudy
1:35 PM 62.2 °F 54.9 °F 77% 29.91 in 7.0 mi WNW 8.1 mph - N/A Rain Light Rain
1:55 PM 66.2 °F 56.5 °F 71% 29.91 in 10.0 mi West 13.8 mph 19.6 mph N/A   Mostly Cloudy
2:15 PM 63.7 °F 55.2 °F 74% 29.94 in 10.0 mi North 19.6 mph 26.5 mph N/A   Mostly Cloudy
2:35 PM 56.3 °F 52.5 °F 87% 29.94 in 4.0 mi North 9.2 mph - N/A Rain Rain
2:55 PM 55.9 °F 53.6 °F 92% 29.95 in 10.0 mi Calm Calm - N/A Rain Light Rain
3:15 PM 55.8 °F 54.3 °F 95% 29.95 in 10.0 mi SSW 3.5 mph - N/A Rain Light Rain
3:35 PM 56.5 °F 54.9 °F 94% 29.94 in 10.0 mi SW 3.5 mph - N/A Rain Light Rain
3:55 PM 57.7 °F 55.8 °F 93% 29.94 in 10.0 mi SW 5.8 mph - N/A Rain Light Rain
4:15 PM 60.4 °F 57.0 °F 88% 29.94 in 10.0 mi Calm Calm - N/A   Scattered Clouds
4:35 PM 62.1 °F 57.2 °F 84% 29.94 in 10.0 mi Calm Calm - N/A   Mostly Cloudy
4:55 PM 63.3 °F 57.2 °F 80% 29.94 in 10.0 mi Calm Calm - N/A   Mostly Cloudy
5:15 PM 63.7 °F 57.4 °F 80% 29.93 in 10.0 mi West 3.5 mph - N/A   Mostly Cloudy
5:35 PM 60.1 °F 56.1 °F 87% 29.94 in 10.0 mi NNE 3.5 mph 18.4 mph N/A Rain Light Rain
5:55 PM 59.0 °F 55.9 °F 90% 29.95 in 3.0 mi NNW 6.9 mph - N/A Rain Heavy Rain
6:15 PM 58.6 °F 56.1 °F 91% 29.95 in 1.5 mi WNW 3.5 mph - N/A Rain Light Rain
6:35 PM 59.9 °F 57.0 °F 90% 29.95 in 10.0 mi WNW 3.5 mph - N/A   Overcast
6:55 PM 60.6 °F 57.2 °F 88% 29.95 in 10.0 mi NW 4.6 mph - N/A   Overcast
7:15 PM 60.4 °F 56.8 °F 88% 29.96 in 10.0 mi NW 5.8 mph - N/A   Overcast
7:35 PM 60.3 °F 56.1 °F 86% 29.96 in 10.0 mi NW 4.6 mph - N/A   Overcast
7:55 PM 59.9 °F 56.3 °F 88% 29.97 in 10.0 mi WNW 3.5 mph - N/A   Mostly Cloudy
8:15 PM 59.9 °F 56.3 °F 88% 29.97 in 10.0 mi NW 4.6 mph - N/A   Overcast
8:35 PM 59.7 °F 56.5 °F 89% 29.98 in 10.0 mi Calm Calm - N/A   Overcast
8:55 PM 59.9 °F 55.8 °F 86% 29.98 in 10.0 mi Calm Calm - N/A Rain Light Rain
9:15 PM 59.0 °F 57.2 °F 94% 29.99 in 10.0 mi SE 3.5 mph - N/A   Overcast
9:35 PM 59.4 °F 56.8 °F 91% 30.00 in 10.0 mi Calm Calm - N/A   Overcast
9:55 PM 59.9 °F 56.1 °F 87% 30.00 in 10.0 mi Calm Calm - N/A Rain Light Rain
10:15 PM 57.6 °F 56.7 °F 97% 30.00 in 10.0 mi Calm Calm - N/A   Scattered Clouds
10:35 PM 55.8 °F 55.4 °F 99% 29.99 in 3.0 mi Calm Calm - N/A   Scattered Clouds
10:55 PM 55.8 °F 55.6 °F 99% 29.99 in 7.0 mi Calm Calm - N/A   Scattered Clouds
11:15 PM 55.9 °F 55.4 °F 98% 30.00 in 10.0 mi SW 3.5 mph - N/A   Mostly Cloudy
11:35 PM 56.3 °F 55.8 °F 98% 30.00 in 10.0 mi Calm Calm - N/A   Overcast
11:55 PM 56.1 °F 55.9 °F 99% 30.00 in 10.0 mi SW 3.5 mph - N/A   Overcast